Location: Newark
(49.3808°N, 3.1844°E)
Time: 23:00:04
(UTC+00:00)

Tiros 1 despin weight - All Passes

Search period start: 15 November 2019 00:00
Search period end: 25 November 2019 00:00
Orbit: 594 x 642 km, 48.2° (Epoch: 14 November)

Date Brightness Start Highest point End Pass type
(mag) Time Alt. Az. Time Alt. Az. Time Alt. Az.
15 Nov - 13:14:41 10° SE 13:15:16 10° SE 13:15:51 10° SE daylight
15 Nov - 14:51:48 10° SW 14:55:52 36° SSE 14:59:59 10° E daylight
15 Nov - 16:32:40 10° WSW 16:37:07 74° S 16:41:38 10° E visible
15 Nov - 18:14:07 10° W 18:18:35 67° SSW 18:23:08 10° ESE visible
15 Nov - 19:55:49 10° W 19:59:45 29° SSW 20:03:44 10° SSE visible
16 Nov - 13:28:22 10° S 13:31:23 18° SE 13:34:26 10° E daylight
16 Nov - 15:07:58 10° SW 15:12:16 52° SSE 15:16:38 10° E daylight
16 Nov - 16:49:12 10° W 16:53:40 78° S 16:58:13 10° E visible
16 Nov - 18:30:42 10° W 18:35:05 52° SSW 18:39:31 10° SE visible
16 Nov - 20:12:50 10° W 20:16:00 19° SW 20:19:12 10° S visible
17 Nov - 13:43:49 10° SSW 13:47:37 29° SSE 13:51:28 10° E daylight
17 Nov - 15:24:21 10° WSW 15:28:45 67° SSE 15:33:13 10° E daylight
17 Nov - 17:05:46 10° W 17:10:14 73° S 17:14:45 10° ESE visible
17 Nov - 18:47:21 10° W 18:51:30 37° SSW 18:55:41 10° SE visible
17 Nov - 20:31:05 10° WSW 20:32:09 11° SW 20:33:12 10° SSW visible
18 Nov - 12:21:08 10° SSE 12:23:15 13° SE 12:25:22 10° ESE daylight
18 Nov - 13:59:48 10° SW 14:03:59 43° SSE 14:08:12 10° E daylight
18 Nov - 15:40:51 10° W 15:45:18 76° S 15:49:48 10° E daylight
18 Nov - 17:22:20 10° W 17:26:45 61° SSW 17:31:13 10° ESE visible
18 Nov - 19:04:10 10° W 19:07:49 24° SW 19:11:29 10° SSE visible
19 Nov - 12:36:01 10° SSW 12:39:26 22° SE 12:42:52 10° E daylight
19 Nov - 14:16:04 10° WSW 14:20:25 58° SSE 14:24:49 10° E daylight
19 Nov - 15:57:24 10° W 16:01:52 77° S 16:06:22 10° E daylight
19 Nov - 17:38:56 10° W 17:43:13 45° SSW 17:47:32 10° SE visible
19 Nov - 19:21:28 10° WSW 19:24:01 15° SW 19:26:36 10° S visible
20 Nov - 12:51:44 10° SW 12:55:42 34° SSE 12:59:44 10° E daylight
20 Nov - 14:32:31 10° WSW 14:36:56 72° S 14:41:24 10° E daylight
20 Nov - 16:13:58 10° W 16:18:24 69° S 16:22:53 10° ESE daylight
20 Nov - 17:55:38 10° W 17:59:35 31° SSW 18:03:34 10° SSE visible
21 Nov - 11:28:27 10° S 11:31:15 17° SE 11:34:05 10° E daylight
21 Nov - 13:07:51 10° SW 13:12:06 49° SSE 13:16:24 10° E daylight
21 Nov - 14:49:03 10° W 14:53:29 78° S 14:57:57 10° E daylight
21 Nov - 16:30:33 10° W 16:34:54 54° SSW 16:39:18 10° ESE visible
21 Nov - 18:12:36 10° W 18:15:51 20° SW 18:19:08 10° S visible
22 Nov - 11:43:47 10° SSW 11:47:29 27° SSE 11:51:12 10° E daylight
22 Nov - 13:24:12 10° WSW 13:28:35 65° SSE 13:33:00 10° E daylight
22 Nov - 15:05:36 10° W 15:10:02 75° S 15:14:31 10° ESE daylight
22 Nov - 16:47:10 10° W 16:51:19 39° SSW 16:55:30 10° SE visible
22 Nov - 18:30:28 10° WSW 18:32:00 12° SW 18:33:33 10° SSW visible
23 Nov - 10:21:26 10° SSE 10:23:08 12° SE 10:24:50 10° ESE daylight
23 Nov - 11:59:42 10° SW 12:03:49 40° SSE 12:07:59 10° E daylight
23 Nov - 13:40:42 10° W 13:45:06 75° S 13:49:34 10° E daylight
23 Nov - 15:22:11 10° W 15:26:33 63° SSW 15:31:00 10° ESE daylight
23 Nov - 17:03:58 10° W 17:07:39 26° SSW 17:11:22 10° SSE visible
24 Nov - 10:36:01 10° SSW 10:39:17 21° SE 10:42:34 10° E daylight
24 Nov - 12:15:56 10° WSW 12:20:15 56° SSE 12:24:36 10° E daylight
24 Nov - 13:57:15 10° W 14:01:40 78° S 14:06:07 10° E daylight
24 Nov - 15:38:46 10° W 15:43:02 47° SSW 15:47:20 10° SE daylight
24 Nov - 17:21:09 10° WSW 17:23:52 16° SW 17:26:36 10° S visible
